Location: Firdgum
(53.2488°N, 5.5615°E)
Time: 12:50:56
(UTC+00:00)

Cosmos 2082 - Pass Details

Date: 08 December 2019
Orbit: 834 x 855 km, 71.0° (Epoch: 17 January)

Event Time Altitude Azimuth Distance (km) Brightness Sun altitude
Exits shadow 04:57:02 50° 257° (WSW) 1,058 3.8 -22.7°
Maximum altitude 04:58:13 62° 307° (NW) 942 3.6 -22.6°
Drops below altitude 10° 05:03:49 10° 28° (NNE) 2,458 6.3 -21.7°
Sets 05:06:18 0° 32° (NNE) 3,396 7.1 -21.4°
